Home   Weather   Seelze   Past weeks

Flag for Germany Past Weather in Seelze, Lower Saxony, Germany — Yesterday and Last 2 Weeks

Now
73 °F

Sunny.


Feels Like: 77 °F
Forecast: 55 / 66 °F
Wind: 8 mph from Southeast

Location: Hannover

Current Time: Sep 25, 2016 at 7:32:37 PM

Latest Report: Sep 25, 2016 at 6:50 PM


Visibility: 10 mi

Pressure: 30.04 "Hg

Humidity: 44%

Dew Point: 50 °F

Location of SeelzeLocation

Past Weather in Seelze — Graph

°F

Seelze Temperature Yesterday

Maximum temperature yesterday: 72 °F (at 2:20 PM)
Minimum temperature yesterday: 43 °F (at 6:50 AM)
Average temperature yesterday: 58 °F

High & Low Weather Summary for the Past Weeks

 TemperatureHumidityPressure
High90 °F (Sep 13, 2:20 PM)100% (Sep 21, 3:50 AM)30.30 "Hg (Sep 21, 3:50 AM)
Low43 °F (Sep 24, 6:50 AM)29% (Sep 13, 5:50 PM)29.86 "Hg (Sep 15, 5:50 PM)
Average64 °F70%30.06 "Hg
* Reported Sep 10 6:20 PM — Sep 25 6:20 PM, Seelze, Weather by CustomWeather, © 2016

Note: Actual official high and low records may vary slightly from our data, if they occured in-between our weather recording intervals... More about our weather records

Advertising

Seelze Weather History for the Previous 24 Hours

Scroll right to see more
 ConditionsComfort  
Time TempWeatherWind HumidityBarometerVisibility
6:20 PM
Sun, Sep 25
75 °FSunny.9 mph39%30.04 "Hg10 mi
5:50 PM77 °FSunny.10 mph36%30.04 "Hg10 mi
5:20 PM75 °FSunny.10 mph39%30.04 "Hg10 mi
4:50 PM77 °FSunny.13 mph36%30.04 "Hg10 mi
4:20 PM77 °FSunny.12 mph34%30.04 "Hg10 mi
3:50 PM77 °FPassing clouds.13 mph36%30.04 "HgN/A
3:20 PM75 °FPassing clouds.13 mph41%30.04 "HgN/A
2:50 PM75 °FSunny.14 mph41%30.04 "Hg10 mi
2:20 PM73 °FSunny.14 mph41%30.04 "Hg10 mi
1:50 PM73 °FSunny.14 mph44%30.07 "Hg10 mi
1:20 PM73 °FSunny.14 mph44%30.07 "Hg10 mi
12:50 PM72 °FSunny.14 mph47%30.07 "Hg10 mi
12:20 PM70 °FPassing clouds.13 mph50%30.09 "HgN/A
11:50 AM70 °FSunny.13 mph50%30.09 "Hg10 mi
11:20 AM66 °FSunny.13 mph56%30.09 "Hg10 mi
10:50 AM64 °FSunny.12 mph60%30.09 "Hg10 mi
10:20 AM63 °FSunny.12 mph64%30.09 "Hg10 mi
9:50 AM61 °FSunny.12 mph68%30.12 "Hg10 mi
9:20 AM57 °FSunny.9 mph77%30.12 "Hg10 mi
8:50 AM55 °FPassing clouds.6 mph82%30.12 "HgN/A
8:20 AM54 °FSunny.6 mph82%30.12 "Hg10 mi
7:50 AM50 °FPassing clouds.3 mph88%30.12 "HgN/A
7:20 AM48 °FPassing clouds.5 mph94%30.12 "HgN/A
6:50 AM50 °FClear.5 mph88%30.12 "Hg10 mi
6:20 AM50 °FClear.5 mph88%30.12 "Hg10 mi
5:50 AM50 °FClear.5 mph88%30.12 "Hg10 mi
5:20 AM52 °FClear.5 mph88%30.12 "Hg10 mi
4:50 AM54 °FPassing clouds.3 mph82%30.15 "HgN/A
4:20 AM52 °FClear.5 mph88%30.15 "Hg10 mi
3:50 AM54 °FPassing clouds.5 mph82%30.15 "HgN/A
3:20 AM54 °FClear.5 mph82%30.15 "Hg10 mi
2:50 AM54 °FPassing clouds.5 mph82%30.15 "HgN/A
2:20 AM54 °FPassing clouds.3 mph82%30.15 "HgN/A
1:50 AM54 °FClear.2 mph82%30.18 "Hg10 mi
1:20 AM54 °FClear.2 mph82%30.18 "Hg10 mi
12:50 AM54 °FClear.5 mph88%30.18 "Hg10 mi
12:20 AM55 °FClear.5 mph82%30.18 "Hg10 mi
11:50 PM
Sat, Sep 24
57 °FClear.5 mph77%30.18 "Hg10 mi
11:20 PM55 °FClear.6 mph82%30.18 "Hg10 mi
10:50 PM55 °FClear.6 mph82%30.18 "Hg10 mi
10:20 PM57 °FClear.6 mph77%30.18 "Hg10 mi
9:50 PM57 °FClear.6 mph77%30.18 "Hg10 mi
9:20 PM59 °FClear.5 mph72%30.18 "Hg10 mi
8:50 PM61 °FClear.3 mph68%30.18 "Hg10 mi
8:20 PM61 °FClear.3 mph68%30.18 "Hg10 mi
7:50 PM63 °FClear.3 mph64%30.18 "Hg10 mi
7:20 PM64 °FClear.3 mph60%30.18 "Hg10 mi
Weather by CustomWeather, © 2016

See weather overviewHow to use our weather pages